[[{"header":{"parameterUnit":"m.s-1","parameterCategory":1,"la1":30.2991,"la2":30.254,"lo1":-89.0895,"lo2":-89.0444,"dy":0.0017,"dx":0.0017,"nx":28,"ny":28,"refTime":"2024-09-28T03:00:00:Z","depth":0,"parameterNumber":2,"parameterNumberName":"U-component_of_WINDS"},"data":[0,0,0,0,0,0,0,0,0,0,0,0,0,0,0,0,0,0,0,0,0,0,0,0,0,0,0,0,0,0,0,0,0,0,0,0,0,0,0,0,0,0,0,0,0,0,0,0,0,0,0,0,0,0,0,0,0,0,4.3001,4.3004,0,4.32,4.3202,4.3204,4.317,4.3167,4.3163,4.316,4.3365,4.3373,4.3382,0,0,0,0,0,0,0,0,0,0,0,0,0,4.2594,4.2602,4.3001,4.3004,4.3006,4.3199,4.3202,4.3205,4.3171,4.3167,4.3162,4.3159,4.3362,4.3372,4.3382,0,0,0,0,0,0,0,0,0,0,0,0,0,4.278,4.2605,4.3001,4.3013,4.3016,4.3199,4.3202,4.3205,4.3172,4.3167,4.3161,4.3157,4.3358,4.3371,4.3384,4.3568,0,0,4.3424,4.3429,0,0,0,0,0,0,0,0,4.2769,4.2795,4.3008,4.3012,4.3016,4.3155,4.3133,4.3327,4.3173,4.3113,4.316,4.3154,4.3299,4.3317,4.3365,4.3578,4.3586,4.3425,4.3433,4.3438,4.3442,0,0,0,0,0,0,0,4.2756,4.2786,4.308,4.3012,4.3016,4.3008,4.3029,4.317,4.3233,4.3117,4.3115,4.3139,4.33,4.3353,4.337,4.3589,4.3424,4.3436,4.3444,4.3449,4.3961,4.3967,0,0,0,0,0,0,4.274,4.2776,4.3073,4.3086,4.2877,4.302,4.3043,4.3116,4.3231,4.3244,4.3144,4.3137,4.3333,4.3355,4.3377,4.3599,4.3438,4.345,4.3458,4.3956,4.3963,4.3969,0,0,0,0,0,0,4.2731,4.2767,4.3065,4.293,4.2968,4.3032,4.3114,4.3122,4.3175,4.3251,4.3262,4.3186,4.333,4.3359,4.352,4.3605,4.3456,4.3468,4.3949,4.3958,4.3966,4.4044,0,0,0,0,0,0,4.272,4.2764,4.2834,4.2932,4.2975,4.3205,4.312,4.313,4.3197,4.319,4.3293,4.3305,4.3328,4.3501,4.3533,4.362,4.3478,4.3941,4.3953,4.3963,4.4034,4.4055,4.4072,0,0,0,0,0,4.2705,4.2849,4.2838,4.2874,4.3064,4.321,4.3235,4.3258,4.3204,4.3275,4.3324,4.3302,4.3591,4.3518,4.3554,4.3646,4.3936,4.395,4.3962,4.4026,4.4051,4.4071,0,0,0,0,0,0,4.2761,4.2862,4.2851,4.3031,4.3112,4.3204,4.3295,4.3283,4.3382,4.3372,4.3397,4.342,4.3584,4.3632,4.3548,4.383,4.3756,4.3777,4.3792,4.3816,4.3835,4.3819,4.3489,0,0,0,0,0,4.2794,4.2904,4.2987,4.3137,4.3179,4.323,4.3295,4.3305,4.339,4.3425,4.3485,4.3569,4.3679,4.3751,4.3856,4.4042,4.4063,4.4123,4.4142,4.4157,4.4174,4.4274,4.4301,4.4012,4.4012,4.4011,0,0,4.2863,4.2932,4.3,4.315,4.3214,4.3327,4.3259,4.3382,4.3466,4.3444,4.3599,4.3647,4.3742,4.3916,4.3996,4.3961,4.4259,4.4173,4.4185,4.4194,4.429,4.4318,4.4342,4.4021,4.4019,4.4018,0,0,4.3047,4.3111,4.3243,4.3308,4.3406,4.3439,4.3471,4.3565,4.3595,4.3752,4.3737,4.3838,4.4027,4.4095,4.4154,4.4363,4.4346,4.4397,4.4495,4.4592,4.4615,4.4635,4.4708,4.4734,4.4414,4.4415,4.4415,0,4.3121,4.329,4.3312,4.3436,4.3502,4.3487,4.362,4.3683,4.381,4.3856,4.3815,4.405,4.4114,4.4303,4.4354,4.4403,4.4439,4.4385,4.461,4.463,4.4649,4.4719,4.4747,4.442,4.4419,4.4419,4.4418,0,4.3376,4.3494,4.3588,4.371,4.3787,4.3915,4.3956,4.4032,4.4036,4.4073,4.4232,4.4308,4.4427,4.4473,4.4479,4.4663,4.4638,4.4604,4.4529,4.4682,4.4748,4.4775,4.4428,4.4426,4.4424,4.4423,0,0,4.3599,4.3731,4.3766,4.382,4.3927,4.4018,4.4146,4.4262,4.4325,4.4414,4.452,4.468,4.4648,4.4716,4.4729,4.4815,4.4974,4.477,4.4772,4.4803,4.5179,4.5202,4.5233,4.4964,4.4969,4.4973,4.517,0,4.3792,4.4015,4.4038,4.4238,4.4347,4.4333,4.4444,4.4522,4.456,4.4658,4.4701,4.4812,4.4763,4.4803,4.4888,4.4936,4.5049,4.4923,4.5062,4.5067,4.5036,4.5268,4.5294,4.5476,4.5196,4.5201,4.5204,0,4.4046,4.414,4.4351,4.4441,4.4487,4.4586,4.4694,4.4788,4.4875,4.4897,4.4972,4.4974,4.5105,4.5027,4.5207,4.5121,4.5179,4.5212,4.5219,4.5231,4.5143,4.5284,4.5535,4.5561,4.5245,4.5242,4.5239,0,4.4185,4.4366,4.4514,4.4562,4.4671,4.4741,4.479,4.4872,4.494,4.5034,4.5078,4.5188,4.5247,4.5331,4.5362,4.5303,4.554,4.5465,4.5561,4.556,4.561,4.5606,4.5871,4.5652,4.5651,4.5651,4.565,0,4.4396,4.4525,4.4578,4.4669,4.4813,4.4838,4.498,4.5026,4.5099,4.5199,4.5195,4.5289,4.5325,4.5425,4.5451,4.5595,4.5622,4.5643,4.5648,4.5642,4.5639,4.5679,4.5667,4.5658,4.5656,4.5655,4.5654,0,4.4575,4.4616,4.4777,4.4867,4.4893,4.4995,4.5072,4.516,4.5197,4.5323,4.5355,4.5413,4.553,4.557,4.5712,4.5729,4.5896,4.5892,4.5866,4.5867,4.5959,4.5949,4.6258,4.6298,4.6054,4.6056,4.6058,0,4.4707,4.4805,4.4906,4.4972,4.5023,4.513,4.5199,4.5228,4.53,4.5406,4.5481,4.5597,4.5691,4.5879,4.5934,4.6043,4.6039,4.614,4.6055,4.6046,4.6038,4.603,4.604,4.6155,4.6157,4.6159,4.6161,0,4.4934,4.4949,4.5048,4.5154,4.5236,4.5322,4.5404,4.5459,4.55,4.5581,4.57,4.5773,4.5917,4.6032,4.6143,4.6193,4.6184,4.6187,4.6215,4.6209,4.6189,4.6199,4.5907,4.618,4.6178,4.6176,4.6175,4.6175,4.5092,4.5178,4.5262,4.5372,4.5437,4.5514,4.56,4.5648,4.5747,4.5866,4.5878,4.6006,4.609,4.6237,4.6293,4.6393,4.6365,4.6406,4.6415,4.6424,4.643,4.6175,4.6414,4.6414,4.6413,4.6413,4.6413,0,4.5317,4.537,4.5471,4.5586,4.5673,4.5656,4.5746,4.582,4.5932,4.6011,4.6103,4.6239,4.635,4.6414,4.6525,4.6593,4.6592,4.6621,4.6615,4.6627,4.645,4.6414,4.662,4.662,4.662,4.662,4.662,4.662,4.5445,4.5589,4.5614,4.579,4.5842,4.5967,4.6019,4.609,4.6153,4.6304,4.6396,4.6437,4.651,4.6626,4.6727,4.6743,4.6783,4.6815,4.6828,4.6661,4.664,4.6619,4.6585,4.6824,4.6824,4.6995,4.6997,4.6998]},{"header":{"parameterUnit":"m.s-1","parameterCategory":1,"la1":30.2991,"la2":30.254,"lo1":-89.0895,"lo2":-89.0444,"dy":0.0017,"dx":0.0017,"nx":28,"ny":28,"refTime":"2024-09-28T03:00:00:Z","depth":0,"parameterNumber":3,"parameterNumberName":"V-component_of_WINDS"},"data":[0,0,0,0,0,0,0,0,0,0,0,0,0,0,0,0,0,0,0,0,0,0,0,0,0,0,0,0,0,0,0,0,0,0,0,0,0,0,0,0,0,0,0,0,0,0,0,0,0,0,0,0,0,0,0,0,0,0,1.2407,1.2408,0,1.2474,1.2474,1.2475,1.251,1.251,1.251,1.251,1.2578,1.258,1.2582,0,0,0,0,0,0,0,0,0,0,0,0,0,1.2309,1.2311,1.2407,1.2408,1.2409,1.2473,1.2474,1.2475,1.251,1.251,1.251,1.251,1.2578,1.258,1.2582,0,0,0,0,0,0,0,0,0,0,0,0,0,1.2361,1.2311,1.2407,1.2434,1.2437,1.2473,1.2474,1.2475,1.251,1.251,1.251,1.251,1.2577,1.258,1.2582,1.2597,0,0,1.259,1.2592,0,0,0,0,0,0,0,0,1.2358,1.2365,1.2429,1.2432,1.2435,1.2483,1.2465,1.2516,1.251,1.2482,1.251,1.251,1.2547,1.2552,1.2564,1.26,1.2603,1.2591,1.2592,1.2593,1.2594,0,0,0,0,0,0,0,1.2354,1.2362,1.2433,1.243,1.2434,1.2442,1.245,1.2475,1.2513,1.2484,1.2487,1.2494,1.2548,1.2562,1.2566,1.2604,1.2591,1.2593,1.2595,1.2596,1.2655,1.2655,0,0,0,0,0,0,1.2347,1.2359,1.2431,1.2435,1.2396,1.2444,1.2452,1.2468,1.2513,1.252,1.2494,1.2496,1.2557,1.2563,1.2569,1.2588,1.2593,1.2596,1.2597,1.2655,1.2655,1.2655,0,0,0,0,0,0,1.2344,1.2353,1.2429,1.2398,1.2408,1.2445,1.2463,1.2469,1.2482,1.252,1.2527,1.2501,1.2557,1.2565,1.259,1.2591,1.2597,1.2599,1.2655,1.2655,1.2655,1.2628,0,0,0,0,0,0,1.2341,1.2352,1.2358,1.2398,1.241,1.2449,1.2463,1.247,1.2487,1.2489,1.2528,1.2535,1.2558,1.2585,1.2592,1.2595,1.2602,1.2655,1.2655,1.2655,1.2629,1.2627,1.2626,0,0,0,0,0,1.2338,1.2348,1.2358,1.2367,1.2418,1.2449,1.2455,1.2482,1.2487,1.2493,1.2517,1.2534,1.259,1.2588,1.2596,1.2599,1.2655,1.2655,1.2655,1.263,1.2628,1.2626,0,0,0,0,0,0,1.2308,1.2354,1.2366,1.2389,1.2415,1.2454,1.2464,1.2479,1.2503,1.2505,1.2536,1.2545,1.2566,1.2585,1.2582,1.2615,1.2624,1.2625,1.2602,1.26,1.2599,1.2594,1.2604,0,0,0,0,0,1.2305,1.2325,1.2364,1.2381,1.2393,1.2426,1.244,1.2458,1.2486,1.2497,1.2523,1.2549,1.2573,1.2588,1.2612,1.2632,1.264,1.2638,1.2636,1.2635,1.2636,1.2647,1.2646,1.2655,1.2655,1.2655,0,0,1.2297,1.2325,1.2336,1.2376,1.2398,1.2418,1.2435,1.2456,1.2472,1.25,1.2525,1.2545,1.2576,1.2598,1.2609,1.2615,1.2635,1.2635,1.2633,1.2635,1.2647,1.2646,1.2645,1.2655,1.2655,1.2655,0,0,1.2294,1.2317,1.2334,1.2355,1.2387,1.2409,1.2412,1.245,1.2464,1.2489,1.251,1.2529,1.2569,1.259,1.2606,1.2609,1.2624,1.2616,1.2607,1.2617,1.2617,1.2616,1.2616,1.2616,1.2617,1.2616,1.2616,0,1.2281,1.2313,1.234,1.236,1.2377,1.2402,1.2419,1.2438,1.2477,1.2487,1.2493,1.2543,1.2566,1.2592,1.2593,1.2605,1.261,1.2612,1.2614,1.2614,1.2614,1.2615,1.2615,1.2615,1.2615,1.2615,1.2616,0,1.2295,1.2316,1.2326,1.2362,1.2379,1.2397,1.2427,1.2441,1.2457,1.2477,1.2502,1.253,1.2559,1.2567,1.2583,1.2596,1.2598,1.2608,1.2618,1.2612,1.2613,1.2613,1.2613,1.2614,1.2614,1.2615,0,0,1.2277,1.2326,1.2329,1.2345,1.2382,1.2399,1.2418,1.2446,1.2457,1.2483,1.2499,1.2531,1.254,1.2558,1.2577,1.2586,1.2585,1.2595,1.2596,1.2592,1.26,1.2592,1.2591,1.2595,1.2596,1.2596,1.2597,0,1.2278,1.2313,1.2337,1.2362,1.2382,1.2406,1.2422,1.2446,1.2465,1.2485,1.2506,1.2528,1.2539,1.255,1.256,1.2583,1.2587,1.2583,1.261,1.2611,1.2601,1.2592,1.2584,1.2584,1.2598,1.2598,1.2598,0,1.2286,1.231,1.2336,1.237,1.2379,1.2393,1.242,1.2438,1.2466,1.2479,1.2498,1.2517,1.2536,1.2543,1.2571,1.2568,1.258,1.2593,1.2593,1.2597,1.2604,1.2595,1.2585,1.2584,1.2599,1.2599,1.2599,0,1.2269,1.2308,1.2329,1.2342,1.2381,1.239,1.2407,1.2435,1.245,1.2473,1.2483,1.2509,1.2523,1.2542,1.2566,1.2569,1.2591,1.26,1.2602,1.2601,1.2606,1.2605,1.2597,1.2614,1.2614,1.2614,1.2614,0,1.2269,1.2284,1.2321,1.2334,1.2351,1.2379,1.2395,1.2414,1.2438,1.2454,1.2477,1.2491,1.2523,1.2541,1.2561,1.258,1.2586,1.2597,1.2602,1.2595,1.2593,1.2603,1.2604,1.2614,1.2614,1.2614,1.2614,0,1.2254,1.2279,1.2303,1.2338,1.2347,1.2358,1.2388,1.2401,1.2421,1.2441,1.2448,1.2479,1.2501,1.2528,1.2559,1.2572,1.2589,1.2597,1.258,1.2583,1.2583,1.2582,1.258,1.2581,1.2598,1.2598,1.2597,0,1.2252,1.2264,1.23,1.2312,1.2328,1.2348,1.2363,1.239,1.2404,1.2435,1.2444,1.2468,1.2489,1.2524,1.2549,1.2573,1.2581,1.2579,1.2585,1.2577,1.258,1.2579,1.258,1.2577,1.2577,1.2577,1.2576,0,1.2246,1.2257,1.2278,1.2303,1.232,1.2341,1.2362,1.2371,1.2402,1.2417,1.244,1.2456,1.2488,1.2511,1.2538,1.2555,1.257,1.2574,1.2576,1.2569,1.2558,1.2563,1.2575,1.2574,1.2574,1.2575,1.2575,1.2575,1.2237,1.2248,1.2275,1.2297,1.2316,1.2335,1.2348,1.2369,1.2389,1.2416,1.2431,1.2453,1.2479,1.2516,1.2532,1.255,1.2555,1.2558,1.2558,1.2558,1.2556,1.2555,1.2555,1.2555,1.2555,1.2555,1.2555,0,1.2232,1.2249,1.2269,1.2298,1.2315,1.2328,1.2352,1.2365,1.2385,1.2407,1.2426,1.2452,1.2475,1.2501,1.2525,1.2534,1.2541,1.2539,1.2538,1.2542,1.255,1.2546,1.2532,1.2532,1.2532,1.2532,1.2532,1.2532,1.2231,1.225,1.2265,1.2293,1.2311,1.2333,1.2346,1.2363,1.2381,1.2408,1.2427,1.2444,1.2467,1.2492,1.2513,1.252,1.2528,1.2523,1.2532,1.254,1.2542,1.2543,1.254,1.2525,1.2525,1.2522,1.2522,1.2522]}]]